Location: Aula-Vintri
(58.3875°N, 22.4322°E)
Time: 11:40:49
(UTC+00:00)

Cosmos 990 Rocket - Pass Details

Date: 13 October 2019
Orbit: 747 x 769 km, 74.0° (Epoch: 13 November)

Event Time Altitude Azimuth Distance (km) Brightness Sun altitude
Rises 18:04:15 0° 328° (NNW) 3,216 8.0 -20.6°
Reaches altitude 10° 18:06:40 10° 333° (NNW) 2,291 7.1 -20.9°
Maximum altitude 18:11:48 59° 53° (NE) 880 4.1 -21.5°
Enters shadow 18:12:46 50° 96° (E) 967 4.1 -21.6°
